Volver al catálogo

CZ-6A DEB

ActivoSSO
NORAD 56666·DEBRIS·🇨🇳 China

Lanzado Nov 11, 2022 desde Taiyuan Satellite Launch Center

Loading…

Próximos Pases (próximas 24 horas)

TLE

EnvejeciendoSource: Space-Track

Época: Sep 9, 2026, 23:03 UTC

1 56666U 22151AGS 26252.96042940  .00000971  00000-0  28463-3 0  9994
2 56666  98.7243 315.7291 0074699  31.9398 328.6288 14.44626400177632

Sigue CZ-6A DEB en tiempo real con AllMySat

Download on the App Store